User: anonymous   Login
Location: Canyon Rim
(40.8777°N, 111.8641°W)
Time: 16:43:33
(UTC+00:00)
Language:

XW-2D - Orbit

View from above orbital plane
View from above orbital plane
View from above satellite
View from above satellite

Ground track
Ground track

The orbit data is extracted from the following two-line orbital elements,

1 40907U 15049J   21175.21133309  .00000772  00000-0  42292-4 0  9996
2 40907  97.4847 177.2752 0014506 154.0959 267.5355 15.17085410318626
Epoch (UTC): 24 June 2021 05:04:19
Eccentricity: 0.0014506
inclination: 97.4847°
perigee height: 504 km
apogee height: 524 km
right ascension of ascending node: 177.2752°
argument of perigee: 154.0959°
revolutions per day: 15.17085410
mean anomaly at epoch: 267.5355°
orbit number at epoch: 31862

The dashed part of the orbit path shows where the satellite is in the earth's shadow,  

DLR